Printer-friendly version

IAU Minor Planet Center

Minor Planet Center

MPEC 2007-P26 : 2007 PP6

The following Minor Planet Electronic Circular may be linked-to from your own Web pages, but must not otherwise be redistributed electronically.


Read MPEC 2007-P25 Read MPEC 2007-P27


M.P.E.C. 2007-P26                                Issued 2007 Aug. 10, 16:41 UT

     The Minor Planet Electronic Circulars contain information on unusual
         minor planets and routine data on comets.  They are published
   on behalf of Commission 20 of the International Astronomical Union by the
          Minor Planet Center, Smithsonian Astrophysical Observatory,
                          Cambridge, MA 02138, U.S.A.

             Prepared using the Tamkin Foundation Computer Network

                              MPC@CFA.HARVARD.EDU
          URL http://www.cfa.harvard.edu/iau/mpc.html  ISSN 1523-6714

                                   2007 PP6

Observations:
     K07P06P* C2007 08 09.63572 21 06 52.20 -52 33 49.7          18.7 V EP026E12
     K07P06P  C2007 08 09.64892 21 06 48.96 -52 34 13.4          18.9 V EP026E12
     K07P06P  C2007 08 09.66219 21 06 45.68 -52 34 36.8          18.8 V EP026E12
     K07P06P  C2007 08 09.67557 21 06 42.48 -52 34 59.4          18.7 V EP026E12
     K07P06P  C2007 08 09.70228 21 06 36.00 -52 35 46.5          18.6 V EP026E12
     K07P06P  C2007 08 09.71583 21 06 32.61 -52 36 10.4          18.9 V EP026E12
     K07P06P  C2007 08 09.72949 21 06 29.37 -52 36 34.0          19.0 V EP026E12
     K07P06P  C2007 08 09.74318 21 06 25.99 -52 36 57.5          18.7 V EP026E12
     K07P06P  C2007 08 09.75944 21 06 22.15 -52 37 25.6          18.9 R EP026E12
     K07P06P  C2007 08 09.77285 21 06 18.86 -52 37 48.8          18.4 R EP026E12
     K07P06P  C2007 08 10.49418 21 03 25.16 -52 59 00.6          19.0 V EP026E12
     K07P06P  C2007 08 10.50574 21 03 22.21 -52 59 21.0          18.4 V EP026E12
     K07P06P  C2007 08 10.51734 21 03 19.29 -52 59 41.3          19.0 V EP026E12
     K07P06P  C2007 08 10.52905 21 03 16.41 -53 00 02.1          18.8 V EP026E12

Observer details:
E12 Siding Spring Survey.  Observers G. J. Garradd, G. Garradd.  Measurers
    E. C. Beshore, A. Boattini, G. J. Garradd, A. R. Gibbs, A. D. Grauer,
    R. E. Hill, R. A. Kowalski, S. M. Larson, R. H. McNaught.  0.5-m Uppsala
    Schmidt + CCD.

Orbital elements:
2007 PP6                                                 Earth MOID = 0.3074 AU
Epoch 2007 Oct. 27.0 TT = JDT 2454400.5                 MPC
M 353.96437              (2000.0)            P               Q
n   0.31320532     Peri.    7.73837     -0.06730170     -0.92434507
a   2.1474182      Node    86.68794     +0.89407156     -0.22294941
e   0.8505289      Incl.   22.09872     +0.44283916     +0.30964456
P   3.15           H   16.9           G   0.15           U   9
Residuals in seconds of arc
070809 E12  0.7+  0.4-    070809 E12  0.1-  1.0-    070810 E12  0.6+  0.7-
070809 E12  0.5+  0.9-    070809 E12  0.6+  0.8-    070810 E12  0.2+  0.7-
070809 E12  0.1+  1.0-    070809 E12  0.1+  0.6-    070810 E12  0.3+  0.5-
070809 E12  0.6+  0.2-    070809 E12  1.0+  0.5-    070810 E12  0.9+  0.7-
070809 E12  0.8+  0.7-    070809 E12  0.5+  0.5-

Ephemeris:
2007 PP6                 a,e,i = 2.15, 0.85, 22                  q = 0.3210
Date    TT    R. A. (2000) Decl.     Delta      r     Elong.  Phase     V
2007 08 08    21 13.16   -51 44.7    0.871    1.796   144.6    19.1    18.8
2007 08 18    20 28.28   -56 15.3    0.803    1.676   134.4    25.6    18.7
2007 08 28    19 30.93   -58 55.4    0.762    1.549   121.2    33.9    18.7
2007 09 07    18 31.91   -59 13.6    0.740    1.414   107.0    43.0    18.7
2007 09 17    17 42.49   -57 39.1    0.728    1.271    92.9    52.2    18.7
2007 09 27    17 05.08   -55 03.3    0.714    1.118    79.3    61.8    18.6
2007 10 07    16 34.96   -51 50.9    0.690    0.953    65.8    72.9    18.5

Sonia Keys                   (C) Copyright 2007 MPC           M.P.E.C. 2007-P26

Read MPEC 2007-P25 Read MPEC 2007-P27


Our Web policy. Index to the CBAT/MPC/ICQ pages.


Valid HTML 4.01!